Location: Burgberg
(50.1428°N, 11.0671°E)
Time: 19:07:07
(UTC+00:00)

STARLINK-24 - Pass Details

Date: 26 January 2020
Orbit: 528 x 529 km, 53.0° (Epoch: 16 February)

Event Time Altitude Azimuth Distance (km) Brightness Sun altitude
Exits shadow 06:18:54 - 282° (WNW) 1,941 5.7 -6.6°
Reaches altitude 10° 06:19:19 10° 283° (WNW) 1,777 5.6 -6.5°
Maximum altitude 06:23:17 56° 2° (N) 637 3.8 -5.9°
Drops below altitude 10° 06:27:16 10° 82° (E) 1,778 7.3 -5.3°
Sets 06:29:31 0° 86° (E) 2,667 8.4 -5.0°
